Location: Ammerl�gen
(47.2167°N, 9.6000°E)
Time: 11:32:35
(UTC+00:00)

CZ-4 R/B DEB - Pass Details

Date: 19 October 2021
Orbit: 738 x 791 km, 98.5° (Epoch: 26 November)

Event Time Altitude Azimuth Distance (km) Brightness Sun altitude
Exits shadow 20:22:40 15° 272° (W) 1,920 ? -39.5°
Drops below altitude 10° 20:25:24 10° 306° (NW) 2,255 ? -39.9°
Sets 20:28:42 0° 330° (NNW) 3,185 ? -40.3°
